[[{"header":{"parameterUnit":"m.s-1","parameterCategory":1,"la1":30.2991,"la2":30.254,"lo1":-89.0895,"lo2":-89.0444,"dy":0.0017,"dx":0.0017,"nx":28,"ny":28,"refTime":"2023-08-11T09:00:00:Z","depth":0,"parameterNumber":2,"parameterNumberName":"U-component_of_WINDS"},"data":[0,0,0,0,0,0,0,0,0,0,0,0,0,0,0,0,0,0,0,0,0,0,0,0,0,0,0,0,0,0,0,0,0,0,0,0,0,0,0,0,0,0,0,0,0,0,0,0,0,0,0,0,0,0,0,0,0,0,3.3709,3.371,0,3.3798,3.3799,3.38,3.3796,3.3794,3.3793,3.3792,3.3888,3.3891,3.3895,0,0,0,0,0,0,0,0,0,0,0,0,0,3.3543,3.3546,3.3709,3.371,3.3711,3.3797,3.3799,3.38,3.3796,3.3794,3.3793,3.3791,3.3887,3.3891,3.3895,0,0,0,0,0,0,0,0,0,0,0,0,0,3.3622,3.3547,3.3709,3.372,3.3721,3.3797,3.3799,3.38,3.3796,3.3794,3.3792,3.3791,3.3885,3.3891,3.3896,3.3969,0,0,3.3913,3.3916,0,0,0,0,0,0,0,0,3.3617,3.3628,3.3717,3.3719,3.3721,3.3783,3.3775,3.3857,3.3797,3.3768,3.3792,3.379,3.3855,3.3863,3.3884,3.3973,3.3977,3.3914,3.3917,3.3919,3.3921,0,0,0,0,0,0,0,3.3612,3.3624,3.3744,3.3718,3.3721,3.3722,3.3731,3.3791,3.3821,3.377,3.377,3.378,3.3856,3.3878,3.3886,3.3979,3.3914,3.3918,3.3922,3.3924,3.4134,3.4136,0,0,0,0,0,0,3.3603,3.362,3.3741,3.3747,3.3663,3.3727,3.3737,3.3766,3.3821,3.3827,3.3782,3.378,3.387,3.388,3.3889,3.3978,3.3919,3.3925,3.3928,3.4132,3.4134,3.4137,0,0,0,0,0,0,3.36,3.3614,3.3738,3.3683,3.3699,3.3731,3.3764,3.3768,3.3791,3.3829,3.3835,3.3799,3.3869,3.3882,3.3949,3.3982,3.3927,3.3932,3.4129,3.4132,3.4136,3.4157,0,0,0,0,0,0,3.3595,3.3613,3.3639,3.3684,3.3702,3.3794,3.3766,3.3771,3.38,3.3798,3.3847,3.3853,3.3868,3.3941,3.3955,3.3988,3.3937,3.4126,3.4131,3.4134,3.4153,3.416,3.4166,0,0,0,0,0,3.3589,3.3642,3.364,3.3655,3.3735,3.3796,3.3806,3.3821,3.3802,3.383,3.3855,3.3852,3.3976,3.3948,3.3963,3.3999,3.4124,3.4129,3.4134,3.415,3.4159,3.4166,0,0,0,0,0,0,3.3602,3.3648,3.3647,3.3716,3.3752,3.3795,3.383,3.383,3.3873,3.3869,3.3888,3.3899,3.3966,3.399,3.3957,3.4073,3.4048,3.4056,3.4055,3.4064,3.407,3.4063,3.3941,0,0,0,0,0,3.3613,3.3656,3.3695,3.3753,3.3771,3.3797,3.3824,3.3832,3.3871,3.3887,3.3917,3.3956,3.4004,3.4035,3.4082,3.4157,3.4169,3.419,3.4197,3.4202,3.4209,3.4252,3.4262,3.4153,3.4153,3.4153,0,0,3.3636,3.3666,3.3693,3.3756,3.3785,3.3831,3.381,3.386,3.3895,3.3895,3.396,3.3984,3.4029,3.4101,3.4134,3.4122,3.4242,3.4208,3.4212,3.4216,3.4258,3.4268,3.4277,3.4156,3.4156,3.4155,0,0,3.3701,3.3728,3.3779,3.3808,3.3852,3.387,3.3882,3.3926,3.3941,3.4006,3.4007,3.4051,3.4133,3.4165,3.4193,3.4273,3.4271,3.4288,3.4322,3.4363,3.4372,3.438,3.4408,3.4418,3.4295,3.4295,3.4295,0,3.3724,3.3792,3.3806,3.3856,3.3884,3.3885,3.3938,3.3967,3.4024,3.4045,3.4031,3.4134,3.4165,3.4245,3.4264,3.4287,3.4303,3.4281,3.4369,3.4377,3.4385,3.4412,3.4423,3.4296,3.4296,3.4296,3.4296,0,3.3819,3.3866,3.3903,3.3956,3.3989,3.4041,3.4064,3.4096,3.4103,3.4122,3.419,3.4227,3.4281,3.4301,3.4308,3.4383,3.4374,3.4365,3.434,3.4396,3.4423,3.4433,3.4299,3.4298,3.4297,3.4297,0,0,3.3892,3.3954,3.3967,3.3992,3.4041,3.4079,3.4132,3.4184,3.4211,3.4252,3.4297,3.4368,3.4359,3.439,3.4401,3.4438,3.45,3.4424,3.4426,3.4437,3.4585,3.4591,3.4603,3.45,3.4502,3.4503,3.4581,0,3.3962,3.4053,3.4068,3.4149,3.4194,3.4197,3.4243,3.428,3.4301,3.4344,3.4368,3.4417,3.4402,3.4421,3.4457,3.4484,3.453,3.4479,3.4543,3.4545,3.4531,3.4617,3.4623,3.4695,3.4592,3.4593,3.4595,0,3.4055,3.4096,3.4181,3.4226,3.4245,3.4286,3.4335,3.4376,3.4419,3.4431,3.4467,3.4474,3.4531,3.4504,3.4584,3.4549,3.4577,3.4595,3.4598,3.4604,3.4573,3.4625,3.4718,3.4728,3.4611,3.461,3.4609,0,3.41,3.4178,3.4238,3.426,3.4313,3.4342,3.4366,3.4406,3.4437,3.4481,3.4502,3.4553,3.458,3.4621,3.4643,3.4621,3.4721,3.4696,3.4734,3.4734,3.4754,3.4753,3.4853,3.4774,3.4773,3.4773,3.4773,0,3.4176,3.4228,3.4259,3.4297,3.4356,3.4374,3.4433,3.4456,3.4493,3.4536,3.4543,3.4585,3.4611,3.4657,3.4675,3.4738,3.4751,3.4764,3.4768,3.4763,3.4761,3.4781,3.4776,3.4776,3.4776,3.4775,3.4774,0,3.4235,3.4259,3.4325,3.437,3.4383,3.4425,3.4464,3.4502,3.4524,3.4579,3.4593,3.4627,3.4682,3.4707,3.4775,3.4788,3.486,3.4861,3.4845,3.4846,3.4883,3.4879,3.4998,3.5015,3.4925,3.4926,3.4927,0,3.4281,3.4321,3.4371,3.44,3.4424,3.4471,3.4502,3.4523,3.4556,3.4608,3.464,3.4694,3.4738,3.4826,3.4858,3.491,3.4912,3.4951,3.492,3.4914,3.4913,3.4909,3.4914,3.4956,3.4957,3.4957,3.4958,0,3.4361,3.4371,3.4415,3.4463,3.45,3.4539,3.4578,3.4602,3.463,3.4667,3.4721,3.4756,3.4825,3.4879,3.4934,3.4961,3.4965,3.4968,3.4979,3.4974,3.4962,3.4969,3.4859,3.4964,3.4964,3.4963,3.4963,3.4963,3.4415,3.4451,3.4492,3.4541,3.4572,3.4609,3.4646,3.4673,3.4718,3.4775,3.4785,3.4844,3.4888,3.4962,3.4991,3.5038,3.503,3.5046,3.5051,3.5054,3.5056,3.4956,3.5049,3.5048,3.5048,3.5048,3.5048,0,3.4495,3.4521,3.4566,3.462,3.466,3.4659,3.4702,3.4736,3.4786,3.4826,3.487,3.4934,3.4987,3.5024,3.5079,3.511,3.5113,3.5123,3.5121,3.5127,3.5061,3.5045,3.512,3.512,3.512,3.512,3.512,3.512,3.454,3.4601,3.4616,3.4694,3.4721,3.4777,3.4802,3.4836,3.4868,3.4939,3.4983,3.5006,3.5046,3.5103,3.5153,3.5163,3.5182,3.5193,3.5202,3.5139,3.5132,3.5124,3.511,3.5197,3.5197,3.5265,3.5265,3.5266]},{"header":{"parameterUnit":"m.s-1","parameterCategory":1,"la1":30.2991,"la2":30.254,"lo1":-89.0895,"lo2":-89.0444,"dy":0.0017,"dx":0.0017,"nx":28,"ny":28,"refTime":"2023-08-11T09:00:00:Z","depth":0,"parameterNumber":3,"parameterNumberName":"V-component_of_WINDS"},"data":[0,0,0,0,0,0,0,0,0,0,0,0,0,0,0,0,0,0,0,0,0,0,0,0,0,0,0,0,0,0,0,0,0,0,0,0,0,0,0,0,0,0,0,0,0,0,0,0,0,0,0,0,0,0,0,0,0,0,3.0576,3.0577,0,3.0653,3.0654,3.0655,3.0686,3.0686,3.0686,3.0686,3.076,3.0762,3.0764,0,0,0,0,0,0,0,0,0,0,0,0,0,3.0449,3.0451,3.0576,3.0577,3.0578,3.0653,3.0654,3.0655,3.0686,3.0686,3.0686,3.0686,3.0759,3.0762,3.0764,0,0,0,0,0,0,0,0,0,0,0,0,0,3.0513,3.0452,3.0576,3.0603,3.0606,3.0653,3.0654,3.0656,3.0686,3.0686,3.0686,3.0686,3.0758,3.0761,3.0765,3.0789,0,0,3.0774,3.0776,0,0,0,0,0,0,0,0,3.0509,3.0517,3.0598,3.0601,3.0605,3.066,3.0637,3.07,3.0686,3.0656,3.0686,3.0686,3.0727,3.0732,3.0747,3.0793,3.0796,3.0775,3.0777,3.0778,3.0779,0,0,0,0,0,0,0,3.0505,3.0514,3.0607,3.0599,3.0603,3.0609,3.0618,3.0649,3.0691,3.0658,3.0661,3.067,3.0728,3.0744,3.0749,3.0797,3.0775,3.0777,3.0779,3.0781,3.0865,3.0865,0,0,0,0,0,0,3.0497,3.051,3.0604,3.0609,3.0555,3.0611,3.0621,3.0642,3.0691,3.0698,3.067,3.0671,3.0739,3.0745,3.0752,3.0784,3.0778,3.0781,3.0783,3.0865,3.0865,3.0866,0,0,0,0,0,0,3.0494,3.0505,3.0601,3.056,3.0573,3.0614,3.0637,3.0644,3.066,3.07,3.0707,3.0679,3.0739,3.0747,3.078,3.0787,3.0782,3.0785,3.0864,3.0865,3.0865,3.0847,0,0,0,0,0,0,3.049,3.0503,3.0515,3.056,3.0575,3.0629,3.0638,3.0646,3.0666,3.0668,3.071,3.0717,3.0739,3.0775,3.0783,3.0791,3.0788,3.0864,3.0865,3.0865,3.0847,3.0847,3.0847,0,0,0,0,0,3.0485,3.0506,3.0515,3.0527,3.0591,3.063,3.0638,3.0665,3.0667,3.0677,3.0703,3.0715,3.0784,3.0778,3.0787,3.0796,3.0864,3.0864,3.0865,3.0848,3.0847,3.0847,0,0,0,0,0,0,3.0459,3.0512,3.0524,3.056,3.059,3.0635,3.065,3.0664,3.0693,3.0694,3.0724,3.0733,3.0763,3.0783,3.0775,3.0822,3.0825,3.0827,3.0808,3.0808,3.0808,3.0802,3.079,0,0,0,0,0,3.0457,3.0487,3.0531,3.0559,3.0574,3.0609,3.0627,3.0645,3.0677,3.069,3.0717,3.0746,3.0774,3.0792,3.082,3.085,3.0859,3.0861,3.086,3.086,3.0862,3.0877,3.0878,3.0868,3.0868,3.0868,0,0,3.0454,3.0487,3.0504,3.0554,3.058,3.0608,3.0619,3.0649,3.0669,3.0693,3.0726,3.0747,3.0781,3.0812,3.0827,3.083,3.0866,3.0861,3.086,3.0862,3.0878,3.0879,3.088,3.0868,3.0868,3.0868,0,0,3.0463,3.0492,3.0517,3.0543,3.0582,3.0605,3.0611,3.0654,3.0669,3.0703,3.0721,3.0745,3.0793,3.0816,3.0834,3.085,3.0862,3.0858,3.0856,3.0871,3.0872,3.0873,3.0878,3.0879,3.0859,3.0859,3.0859,0,3.0454,3.0499,3.0528,3.0557,3.0577,3.0602,3.0627,3.065,3.0695,3.0708,3.071,3.0771,3.0795,3.0831,3.0835,3.0849,3.0855,3.0853,3.087,3.0871,3.0872,3.0877,3.0879,3.0859,3.0859,3.0859,3.0859,0,3.0485,3.0515,3.0531,3.0576,3.0598,3.0624,3.0656,3.0675,3.069,3.0712,3.0745,3.0775,3.081,3.0819,3.0834,3.0857,3.0857,3.0864,3.0868,3.0872,3.0877,3.0879,3.0858,3.0858,3.0858,3.0858,0,0,3.048,3.0541,3.0546,3.0566,3.061,3.0633,3.0659,3.0694,3.0709,3.0739,3.0761,3.08,3.0807,3.0827,3.0844,3.0858,3.0867,3.0863,3.0864,3.0862,3.0893,3.0887,3.0889,3.0875,3.0876,3.0876,3.089,0,3.0495,3.0545,3.0572,3.061,3.0638,3.066,3.0683,3.0711,3.0732,3.0757,3.0779,3.0806,3.0813,3.0825,3.0839,3.0863,3.0873,3.0862,3.0894,3.0895,3.0885,3.0892,3.0887,3.0898,3.0892,3.0892,3.0892,0,3.0519,3.055,3.0591,3.0631,3.0644,3.0664,3.0697,3.0721,3.0752,3.0766,3.0789,3.0806,3.0832,3.0833,3.0869,3.0861,3.0875,3.0888,3.0889,3.0893,3.0894,3.0896,3.0902,3.0904,3.0896,3.0896,3.0895,0,3.051,3.0562,3.0594,3.061,3.0658,3.0671,3.0691,3.0723,3.0742,3.077,3.0782,3.0812,3.0829,3.0851,3.0875,3.0873,3.0907,3.0911,3.0918,3.0918,3.0925,3.0924,3.0934,3.0934,3.0934,3.0934,3.0934,0,3.0524,3.0548,3.0591,3.061,3.0637,3.0666,3.0691,3.0713,3.074,3.0762,3.0783,3.0803,3.0834,3.0857,3.0875,3.0901,3.0909,3.0919,3.0924,3.0918,3.0916,3.0928,3.0927,3.0934,3.0934,3.0934,3.0934,0,3.052,3.0549,3.0585,3.0627,3.0638,3.0656,3.0691,3.0709,3.0731,3.0758,3.0766,3.0799,3.0828,3.0854,3.0891,3.0903,3.0929,3.0935,3.0919,3.0922,3.0928,3.0927,3.0945,3.0949,3.0946,3.0946,3.0946,0,3.0526,3.0546,3.059,3.0607,3.0627,3.0655,3.0674,3.0702,3.0722,3.0758,3.0772,3.0802,3.0827,3.0871,3.0897,3.0925,3.0931,3.0936,3.0936,3.0928,3.0931,3.093,3.0931,3.0935,3.0935,3.0935,3.0935,0,3.0535,3.0548,3.0577,3.061,3.0633,3.066,3.0687,3.0699,3.0733,3.0752,3.0783,3.0802,3.084,3.0869,3.09,3.0919,3.0932,3.0935,3.0938,3.0932,3.0922,3.0927,3.0918,3.0934,3.0935,3.0935,3.0935,3.0935,3.0536,3.0554,3.0588,3.0618,3.0642,3.0667,3.0686,3.071,3.0736,3.0771,3.0785,3.0815,3.0844,3.0887,3.0905,3.0928,3.0931,3.0935,3.0937,3.0937,3.0936,3.0918,3.0933,3.0933,3.0934,3.0934,3.0934,0,3.0545,3.0568,3.0596,3.0634,3.0657,3.0669,3.07,3.0718,3.0745,3.0772,3.0797,3.083,3.0858,3.0886,3.0915,3.0927,3.0934,3.0934,3.0933,3.0937,3.0932,3.0926,3.0928,3.0928,3.0928,3.0928,3.0928,3.0928,3.0553,3.0584,3.0601,3.0642,3.0665,3.0696,3.0712,3.0734,3.0756,3.0793,3.0817,3.0835,3.0862,3.0893,3.0918,3.0926,3.0935,3.0933,3.0942,3.0937,3.0937,3.0937,3.0932,3.0935,3.0935,3.0945,3.0945,3.0945]}]]